Tracking 20083 objects as of 12-Dec-2019
HD Live streaming from Space Station
objects crossing your sky now

DELTA 1 DEB

Track DELTA 1 DEB now!
10-day predictions


NORAD ID: 13575
Int'l Code: 1978-026FN
Perigee: 871.8 km
Apogee: 899.5 km
Inclination: 99.1 °
Period: 102.5 minutes
Semi major axis: 7256 km
RCS: 0.035 m2 (small)
Launch date: March 5, 1978
Source: United States (US)
Launch site: AIR FORCE WESTERN TEST RANGE (AFWTR)

Note: This is SATELLITE DEBRIS
aabbcc
Your satellite tracking list
Your tracking list is empty




NASA's NSSDC Master Catalog

Two Line Element Set (TLE):
1 13575U 78026FN  19346.37266656 -.00000229  00000-0 -11529-3 0  9994
2 13575  99.0501 308.3503 0019059 168.3916 191.7694 14.04433270971223
Source of the keplerian elements: AFSPC